[[[{"header":{"parameterUnit":"kt","parameterCategory":2,"dx":1,"dy":1,"la1":30.253999710083008,"la2":30.299108505249023,"lo1":-89.0895004272461,"lo2":-89.04439544677734,"nx":28,"ny":28,"refTime":"2022-10-11T21:00:00:Z","depth":0,"parameterNumber":1,"parameterNumberName":"U-component_of_WINDS"},"data":[-5.3417,-5.348,-5.3435,-5.3487,-5.3456,-5.3484,-5.348,-5.3471,-5.3452,-5.3484,-5.3494,-5.3456,-5.3421,-5.3425,-5.3436,-5.3419,-5.3428,-5.3485,-5.3456,-5.3238,-5.3205,-5.3174,-5.3155,-5.3487,-5.3487,-5.3687,-5.3689,-5.3691,-5.3271,-5.324,-5.3253,-5.3234,-5.3246,-5.3165,-5.3145,-5.316,-5.3189,-5.3165,-5.3171,-5.3195,-5.3209,-5.3152,-5.3158,-5.319,-5.3153,-5.3196,-5.3193,-5.319,-5.2955,-5.2936,-5.3226,-5.3226,-5.3226,-5.3226,-5.3226,-5.3226,-5.2992,-5.303,-5.2991,-5.3004,-5.2982,-5.2971,-5.3,-5.295,-5.2963,-5.296,-5.2902,-5.2934,-5.2902,-5.2885,-5.2868,-5.2893,-5.2837,-5.287,-5.2878,-5.2889,-5.2908,-5.2631,-5.2891,-5.289,-5.2889,-5.2889,-5.2888,0,-5.2773,-5.2732,-5.2738,-5.2734,-5.274,-5.2731,-5.2715,-5.2732,-5.2627,-5.2642,-5.266,-5.2663,-5.267,-5.2684,-5.2677,-5.2651,-5.2569,-5.2554,-5.2577,-5.2606,-5.2636,-5.2625,-5.2248,-5.2546,-5.2543,-5.2541,-5.2539,-5.2538,-5.249,-5.2539,-5.2473,-5.2485,-5.2463,-5.2483,-5.2486,-5.2388,-5.2395,-5.2362,-5.2402,-5.2412,-5.2415,-5.2454,-5.2394,-5.24,-5.2359,-5.2479,-5.2359,-5.2388,-5.2365,-5.2364,-5.237,-5.2505,-5.2509,-5.2513,-5.2515,0,-5.2337,-5.2256,-5.2316,-5.2244,-5.2227,-5.2285,-5.2224,-5.2258,-5.2203,-5.2244,-5.2248,-5.2162,-5.2182,-5.2101,-5.2107,-5.2065,-5.2166,-5.2125,-5.2178,-5.2166,-5.2267,-5.226,-5.2603,-5.2644,-5.2297,-5.23,-5.2303,0,-5.2064,-5.2131,-5.2008,-5.2046,-5.2119,-5.2016,-5.2091,-5.205,-5.2016,-5.2047,-5.1936,-5.1968,-5.1858,-5.1879,-5.1816,-5.1883,-5.1883,-5.1856,-5.1839,-5.1867,-5.1871,-5.187,-5.1855,-5.1794,-5.1792,-5.179,-5.1789,0,-5.1833,-5.1842,-5.1904,-5.1893,-5.1821,-5.1853,-5.1825,-5.1784,-5.1787,-5.1777,-5.1779,-5.1776,-5.1775,-5.1776,-5.1695,-5.1617,-5.1773,-5.1649,-5.1746,-5.1748,-5.1784,-5.1783,-5.2107,-5.1787,-5.1786,-5.1786,-5.1785,0,-5.1599,-5.1588,-5.1688,-5.1625,-5.1632,-5.1672,-5.166,-5.1675,-5.164,-5.1601,-5.1593,-5.1508,-5.1556,-5.144,-5.1507,-5.1429,-5.1436,-5.1412,-5.1417,-5.1417,-5.1289,-5.1486,-5.18,-5.1831,-5.1419,-5.1416,-5.1413,0,-5.1359,-5.1435,-5.1344,-5.1441,-5.1465,-5.1337,-5.138,-5.1351,-5.1302,-5.1317,-5.1263,-5.1281,-5.1176,-5.117,-5.1214,-5.116,-5.1261,-5.1143,-5.1172,-5.1175,-5.1188,-5.1475,-5.1543,-5.174,-5.1372,-5.1376,-5.138,0,-5.116,-5.1066,-5.1089,-5.1072,-5.1012,-5.103,-5.108,-5.1072,-5.1087,-5.1064,-5.1105,-5.1125,-5.1048,-5.1038,-5.0968,-5.1018,-5.119,-5.0927,-5.0925,-5.098,-5.1343,-5.1408,-5.1441,-5.1132,-5.1137,-5.1141,-5.1347,0,-5.0831,-5.0856,-5.0914,-5.0876,-5.0876,-5.0929,-5.0836,-5.0849,-5.078,-5.0725,-5.0781,-5.0732,-5.0726,-5.0739,-5.0671,-5.0809,-5.0774,-5.069,-5.057,-5.0759,-5.0825,-5.0852,-5.048,-5.0476,-5.0473,-5.047,0,0,-5.0622,-5.0654,-5.0549,-5.0589,-5.0583,-5.0445,-5.0512,-5.0489,-5.0447,-5.0447,-5.0379,-5.0402,-5.0365,-5.0443,-5.0495,-5.0491,-5.0508,-5.0444,-5.0669,-5.0692,-5.0713,-5.0785,-5.0814,-5.0464,-5.0462,-5.0461,-5.046,0,-5.0481,-5.0441,-5.0505,-5.0476,-5.0429,-5.0366,-5.0382,-5.0311,-5.0278,-5.0329,-5.0216,-5.0239,-5.0257,-5.0234,-5.0225,-5.0432,-5.0346,-5.0437,-5.0581,-5.0638,-5.0665,-5.0689,-5.0766,-5.0795,-5.0452,-5.0452,-5.0453,0,-5.027,-5.0216,-5.0235,-5.0209,-5.0176,-5.0202,-5.0053,-5.0086,-5.0105,-4.9951,-5.0004,-4.9965,-4.9924,-5.0008,-5.0042,-4.9981,-5.0205,-5.0116,-5.0135,-5.0137,-5.0187,-5.022,-5.025,-4.9865,-4.9863,-4.9862,0,0,-5.0162,-5.0181,-5.009,-5.0171,-5.0159,-5.0064,-5.0067,-4.9996,-4.996,-4.9946,-4.9892,-4.9863,-4.9872,-4.9881,-4.9885,-4.9989,-4.9974,-5.0047,-5.0075,-5.0098,-5.0113,-5.017,-5.0202,-4.9856,-4.9856,-4.9855,0,0,-5.0109,-5.0006,-4.994,-5.0021,-4.9991,-4.9906,-4.9961,-4.9879,-4.9871,-4.9855,-4.9738,-4.9725,-4.9801,-4.9766,-4.9693,-4.9841,-4.9724,-4.9739,-4.9861,-4.9894,-4.9921,-4.9928,-4.9534,0,0,0,0,0,-4.9914,-5.0018,-4.996,-4.9959,-4.9923,-4.9939,-4.9934,-4.9838,-4.9759,-4.9804,-4.9746,-4.9651,-4.9703,-4.9636,-4.9638,-4.972,-4.9775,-4.9789,-4.9803,-4.9983,-5.0019,-5.0049,0,0,0,0,0,0,-4.9913,-4.9912,-4.9957,-4.9879,-4.9869,-4.9934,-4.9778,-4.9755,-4.9751,-4.9732,-4.9666,-4.9649,-4.957,-4.9628,-4.9632,-4.9712,-4.9532,-4.978,-4.9792,-4.9803,-4.9995,-5.0025,-5.005,0,0,0,0,0,-4.9911,-4.991,-4.9877,-4.9876,-4.9869,-4.9767,-4.9773,-4.9752,-4.9748,-4.9656,-4.9637,-4.9676,-4.9574,-4.9571,-4.963,-4.9713,-4.9529,-4.9531,-4.9788,-4.9798,-4.9806,-5.001,0,0,0,0,0,0,-4.991,-4.9892,-4.9874,-4.9868,-4.9828,-4.9761,-4.9747,-4.9751,-4.967,-4.9652,-4.9661,-4.9647,-4.9579,-4.9575,-4.9573,-4.9719,-4.9527,-4.9528,-4.9529,-4.9796,-4.9803,-4.981,0,0,0,0,0,0,-4.9892,-4.9889,-4.9871,-4.9815,-4.9802,-4.9757,-4.9744,-4.978,-4.9671,-4.9678,-4.9664,-4.9655,-4.9583,-4.9579,-4.9577,-4.9637,-4.9525,-4.9526,-4.9528,-4.9528,-4.9802,-4.9808,0,0,0,0,0,0,-4.9889,-4.9886,-4.9816,-4.9806,-4.9794,-4.9722,-4.9786,-4.9756,-4.9622,-4.9684,-4.9607,-4.9601,-4.959,-4.9585,-4.9581,-4.9642,-4.9638,-4.9525,-4.9526,-4.9527,-4.9527,0,0,0,0,0,0,0,-4.9886,-4.993,-4.9908,-4.9799,-4.9788,-4.9814,-4.9813,-4.9811,-4.9621,-4.9615,-4.9609,-4.9604,-4.9516,-4.9518,-4.9519,-4.9646,0,0,-4.9525,-4.9526,0,0,0,0,0,0,0,0,-4.9929,-4.993,-4.9908,-4.9907,-4.9906,-4.9814,-4.9813,-4.9811,-4.962,-4.9615,-4.961,-4.9606,-4.9516,-4.9518,-4.9519,0,0,0,0,0,0,0,0,0,0,0,0,0,0,0,-4.9908,-4.9907,0,-4.9814,-4.9813,-4.9812,-4.9619,-4.9615,-4.9611,-4.9608,-4.9517,-4.9518,-4.9519,0,0,0,0,0,0,0,0,0,0,0,0,0,0,0,0,0,0,0,0,0,0,0,0,0,0,0,0,0,0,0,0,0,0,0,0,0,0,0,0,0,0,0,0,0,0,0,0,0,0,0,0,0,0,0,0,0,0,0,0,0,0,0,0,0,0,0,0,0]}],[{"header":{"parameterUnit":"kt","parameterCategory":2,"dx":1,"dy":1,"la1":30.253999710083008,"la2":30.299108505249023,"lo1":-89.0895004272461,"lo2":-89.04439544677734,"nx":28,"ny":28,"refTime":"2022-10-11T21:00:00:Z","depth":0,"parameterNumber":2,"parameterNumberName":"V-component_of_WINDS"},"data":[-0.2615,-0.2766,-0.2749,-0.2915,-0.2928,-0.3039,-0.3073,-0.3116,-0.3147,-0.3279,-0.3352,-0.3352,-0.3377,-0.3462,-0.3542,-0.354,-0.3577,-0.3641,-0.363,-0.335,-0.3311,-0.3273,-0.3235,-0.3649,-0.3649,-0.3922,-0.3924,-0.3926,-0.2409,-0.2423,-0.2505,-0.2574,-0.2645,-0.2571,-0.262,-0.2686,-0.2788,-0.2826,-0.2897,-0.3013,-0.3103,-0.3107,-0.3191,-0.3263,-0.3235,-0.3288,-0.3284,-0.3289,-0.2989,-0.295,-0.3309,-0.3309,-0.3309,-0.3309,-0.3309,-0.3309,-0.2031,-0.2123,-0.2154,-0.2243,-0.2273,-0.232,-0.2405,-0.2402,-0.2484,-0.2568,-0.2533,-0.265,-0.2687,-0.2781,-0.2809,-0.2901,-0.284,-0.2894,-0.2908,-0.2923,-0.2941,-0.2552,-0.2914,-0.2913,-0.2912,-0.2911,-0.291,0,-0.175,-0.1729,-0.1807,-0.188,-0.1945,-0.2001,-0.2049,-0.2101,-0.2054,-0.2124,-0.2224,-0.228,-0.239,-0.2485,-0.2561,-0.2579,-0.2514,-0.2505,-0.2542,-0.2563,-0.257,-0.257,-0.2083,-0.2496,-0.2492,-0.249,-0.2488,-0.2486,-0.1369,-0.1478,-0.1502,-0.156,-0.1581,-0.1675,-0.1728,-0.1677,-0.1736,-0.179,-0.1875,-0.1967,-0.2039,-0.2205,-0.2204,-0.2288,-0.2257,-0.2417,-0.227,-0.2283,-0.2263,-0.2258,-0.2269,-0.2448,-0.2453,-0.2457,-0.246,0,-0.1157,-0.1128,-0.1291,-0.1305,-0.1312,-0.1429,-0.1442,-0.1533,-0.152,-0.1644,-0.1669,-0.1652,-0.1752,-0.1724,-0.1835,-0.1818,-0.2015,-0.1981,-0.2,-0.1993,-0.2135,-0.2123,-0.2595,-0.2655,-0.2223,-0.2227,-0.2231,0,-0.0822,-0.0968,-0.0916,-0.1013,-0.1172,-0.1117,-0.1277,-0.1282,-0.1312,-0.1409,-0.1327,-0.1421,-0.137,-0.146,-0.1435,-0.159,-0.161,-0.1607,-0.1599,-0.1616,-0.1617,-0.1651,-0.1632,-0.1575,-0.1572,-0.157,-0.1568,0,-0.0495,-0.0637,-0.0793,-0.0821,-0.0852,-0.0927,-0.0944,-0.0977,-0.103,-0.1094,-0.1128,-0.1208,-0.1253,-0.1317,-0.1284,-0.1185,-0.1472,-0.133,-0.147,-0.1471,-0.1538,-0.1535,-0.1956,-0.1565,-0.1565,-0.1564,-0.1563,0,-0.0222,-0.0285,-0.0515,-0.0538,-0.0578,-0.0681,-0.0754,-0.0836,-0.0877,-0.0867,-0.0918,-0.0862,-0.0993,-0.0855,-0.1036,-0.0917,-0.0967,-0.0975,-0.0984,-0.0998,-0.0844,-0.1089,-0.149,-0.1533,-0.1005,-0.1001,-0.0997,0,0.0144,-0.008,-0.0033,-0.0254,-0.0354,-0.0254,-0.0368,-0.0407,-0.0403,-0.0488,-0.0483,-0.0582,-0.0473,-0.05,-0.0593,-0.0594,-0.0749,-0.0572,-0.0701,-0.0706,-0.0695,-0.1063,-0.1131,-0.1405,-0.0937,-0.0943,-0.0947,0,0.0431,0.0397,0.0354,0.0325,0.0284,0.02,0.0069,-0.0015,-0.0074,-0.0127,-0.0237,-0.0375,-0.0298,-0.0345,-0.0308,-0.0407,-0.0643,-0.0312,-0.0313,-0.0375,-0.0904,-0.0967,-0.1014,-0.0596,-0.0604,-0.0609,-0.09,0,0.0835,0.0727,0.0614,0.0544,0.0485,0.0349,0.0381,0.0314,0.0358,0.0365,0.0204,0.0177,0.0088,0.0044,0.0083,-0.0151,-0.0108,-0.0026,0.0108,-0.0133,-0.0229,-0.0267,0.0248,0.0252,0.0255,0.0258,0,0,0.1176,0.1022,0.1077,0.0953,0.0906,0.101,0.0861,0.0827,0.0754,0.0718,0.0795,0.0595,0.0569,0.0369,0.0297,0.0261,0.022,0.0303,-0.0018,-0.0049,-0.0078,-0.018,-0.0221,0.0264,0.0266,0.0267,0.0268,0,0.133,0.1307,0.1161,0.1129,0.1084,0.11,0.1065,0.1037,0.1034,0.0878,0.0963,0.087,0.0708,0.0669,0.0627,0.0329,0.0396,0.03,0.0129,0.0016,-0.002,-0.0051,-0.0159,-0.0198,0.0276,0.0276,0.0276,0,0.1617,0.1599,0.1532,0.1432,0.1402,0.1296,0.1447,0.1329,0.125,0.1366,0.1208,0.1197,0.1147,0.0955,0.0869,0.0935,0.0555,0.068,0.0659,0.0649,0.0541,0.0498,0.046,0.0961,0.0963,0.0965,0,0,0.1745,0.1646,0.164,0.1467,0.1443,0.1464,0.1411,0.1448,0.1404,0.1385,0.1371,0.1323,0.123,0.1167,0.1081,0.0865,0.0858,0.0764,0.0731,0.0705,0.068,0.0565,0.0523,0.0974,0.0974,0.0974,0,0,0.1805,0.1794,0.1846,0.165,0.1606,0.1587,0.1479,0.1541,0.1467,0.1486,0.154,0.153,0.1351,0.1335,0.1447,0.1128,0.1261,0.1235,0.1145,0.1104,0.1073,0.1079,0.1593,0,0,0,0,0,0.1979,0.1796,0.1844,0.1816,0.1687,0.1561,0.1545,0.1588,0.1682,0.1595,0.1594,0.167,0.1407,0.1507,0.1477,0.135,0.1085,0.1065,0.1046,0.088,0.0837,0.0801,0,0,0,0,0,0,0.1969,0.1934,0.1849,0.1822,0.1794,0.1569,0.1737,0.1743,0.1692,0.1709,0.1668,0.1669,0.1701,0.1525,0.1497,0.1376,0.1603,0.1077,0.106,0.1045,0.0865,0.083,0.0801,0,0,0,0,0,0.196,0.1933,0.1717,0.1825,0.18,0.1813,0.1744,0.1751,0.1712,0.1709,0.1712,0.1748,0.1696,0.1675,0.1509,0.1388,0.1623,0.1612,0.1066,0.1053,0.1041,0.0848,0,0,0,0,0,0,0.1954,0.1937,0.1713,0.1707,0.1897,0.1827,0.1817,0.1757,0.1715,0.1717,0.1792,0.1806,0.1691,0.1676,0.1659,0.139,0.1639,0.1628,0.1621,0.1056,0.1046,0.1037,0,0,0,0,0,0,0.1952,0.1931,0.171,0.1799,0.1804,0.1839,0.183,0.1694,0.1713,0.1801,0.1812,0.1799,0.1714,0.1675,0.1662,0.1448,0.1651,0.1641,0.1634,0.1629,0.1048,0.104,0,0,0,0,0,0,0.1944,0.1926,0.1801,0.1804,0.1809,0.1744,0.1719,0.1584,0.1793,0.1801,0.1813,0.1822,0.1711,0.17,0.1664,0.1454,0.145,0.1651,0.1644,0.1639,0.1635,0,0,0,0,0,0,0,0.1938,0.2049,0.1749,0.1809,0.1813,0.1651,0.1649,0.1648,0.1795,0.1803,0.1811,0.1818,0.171,0.1699,0.1687,0.1459,0,0,0.1652,0.1647,0,0,0,0,0,0,0,0,0.2058,0.2051,0.1748,0.1747,0.1746,0.1651,0.1649,0.1648,0.1796,0.1803,0.1809,0.1815,0.1707,0.1698,0.1688,0,0,0,0,0,0,0,0,0,0,0,0,0,0,0,0.1748,0.1747,0,0.1651,0.165,0.1648,0.1797,0.1802,0.1808,0.1813,0.1704,0.1697,0.1689,0,0,0,0,0,0,0,0,0,0,0,0,0,0,0,0,0,0,0,0,0,0,0,0,0,0,0,0,0,0,0,0,0,0,0,0,0,0,0,0,0,0,0,0,0,0,0,0,0,0,0,0,0,0,0,0,0,0,0,0,0,0,0,0,0,0,0,0,0]}]]]